Temperature
12 12 12 13 13 14 14 14 14 14 14 14 14 14 14 14 14 14 14 14 14 14 14 14 14 14 14 14 14 14 14 14 14 14 14 14 14 14 14 14 14 14 14
11 11 11 11 11 11 12 12 13 13 13 14 14 13 14 14 14 14 14 14 14 14 14 14 14 14 14 14 14 14 14 14 14 14 13 13 14 13 13 13 13 13 13
11 11 11 10 10 10 10 10 11 11 12 13 13 13 13 13 13 13 13 13 13 13 13 13 13 13 14 14 14 14 14 14 14 14 13 13 13 13 12 12 12 12 12
11 10 10 10 10 10 10 9 10 10 10 11 11 12 12 13 13 13 13 13 13 13 13 13 13 13 13 13 13 14 14 14 14 13 13 12 12 12 12 12 11 11 11
11 11 10 10 10 10 9 9 9 9 9 9 10 10 11 11 12 12 13 13 13 13 13 13 13 13 13 13 13 13 13 13 13 13 12 12 11 11 11 11 11 11 11
11 11 10 10 10 10 10 9 9 9 9 9 9 10 10 10 11 11 12 12 13 13 12 12 12 13 13 12 12 13 13 13 13 12 12 11 11 11 11 11 11 11 11
10 10 10 10 10 10 10 10 10 9 9 9 9 9 10 10 10 11 11 12 12 12 12 12 12 12 12 12 12 12 12 12 12 12 12 11 11 11 11 11 12 12 12
9 9 9 9 9 9 10 10 10 9 9 9 9 9 9 9 10 10 11 11 11 12 12 12 12 12 12 11 11 11 11 11 11 11 11 11 11 11 11 12 12 12 12
9 9 8 8 9 9 9 9 9 9 9 9 9 9 9 9 9 10 10 10 11 11 11 12 12 12 12 11 11 11 11 11 11 11 11 11 11 11 11 12 12 12 12
8 8 8 8 8 8 8 8 8 9 9 9 9 9 9 9 9 9 9 10 10 11 11 11 12 12 11 11 11 11 11 11 11 11 11 11 11 12 12 12 12 12 12
7 7 7 7 7 7 7 8 8 8 8 8 8 9 9 9 9 9 9 9 10 10 11 11 11 11 11 11 11 11 11 11 11 11 11 11 11 11 12 12 12 12 12
6 6 6 6 6 6 7 7 7 7 7 8 8 8 8 9 9 9 9 9 9 9 10 11 11 11 11 11 11 11 11 11 11 11 11 11 11 11 11 11 12 12 12
5 5 5 5 5 6 6 6 6 7 7 7 8 8 8 9 9 9 9 9 9 9 9 10 11 11 11 11 11 11 11 11 11 11 11 11 10 10 10 10 11 11 11
4 4 4 4 5 5 6 6 6 6 7 7 7 8 8 8 8 9 9 9 9 9 9 10 11 11 11 11 11 11 11 11 11 11 11 10 10 10 10 10 10 10 11
4 4 4 4 5 5 5 6 6 6 6 7 7 7 8 8 8 8 8 8 8 8 8 9 10 10 10 10 11 11 11 11 11 11 10 10 10 10 9 9 10 10 10
3 4 4 4 5 5 5 5 6 6 6 6 7 7 7 8 8 8 8 8 8 8 8 9 10 10 10 10 10 10 11 11 11 10 10 10 10 10 10 10 10 10 10
4 4 4 4 5 5 5 5 5 6 6 6 6 7 7 7 8 8 7 7 7 7 8 9 10 10 10 10 10 10 10 10 10 10 10 10 10 10 10 10 11 11 10
4 4 4 4 5 5 5 5 5 6 6 6 6 7 7 7 7 7 7 7 7 8 9 10 10 11 11 11 11 10 10 10 10 10 10 10 10 10 10 11 11 11 11
4 4 4 5 5 5 5 5 6 6 6 6 6 7 7 7 7 7 7 7 8 8 9 10 11 11 11 11 11 11 10 10 10 10 10 10 10 10 10 11 11 11 11
5 5 5 5 5 5 5 5 6 6 6 7 7 6 7 7 7 6 6 7 8 8 9 10 11 11 12 12 11 11 10 10 10 10 10 10 11 11 11 11 11 11 11
5 5 5 5 5 5 6 6 6 6 7 7 7 7 7 7 7 7 7 7 8 9 9 10 11 12 12 12 11 11 11 10 10 11 10 11 11 11 11 11 11 11 11
6 6 6 6 6 6 6 6 6 7 7 7 7 7 7 7 6 7 7 8 8 9 10 11 11 12 12 12 12 11 11 11 11 11 11 11 11 11 11 11 11 11 11
6 6 6 6 6 6 6 6 6 7 7 7 7 6 6 7 7 7 7 8 8 9 10 10 11 12 12 12 12 12 12 11 11 11 11 11 11 11 11 11 11 11 11
6 6 6 6 6 6 6 6 6 6 6 6 6 6 6 7 7 7 8 8 9 10 10 11 11 12 12 12 12 12 12 12 11 11 11 11 11 11 11 11 11 11 11
7 7 7 7 7 6 6 6 6 6 6 6 6 6 6 7 7 8 8 9 10 10 11 11 12 12 12 12 12 12 12 12 12 11 11 11 11 11 11 11 11 11 11
8 7 7 7 7 7 7 6 6 6 6 6 7 7 7 8 8 8 9 10 10 11 11 11 12 12 12 12 12 12 12 12 12 12 11 11 11 11 11 11 11 11 11
Wind_Speed
8 8 9 9 10 9 8 8 8 8 9 9 10 9 9 9 8 7 7 7 7 6 7 7 7 7 6 6 6 7 7 7 6 2 3 6 9 11 10 11 12 11 13
7 8 9 9 10 10 10 9 9 9 9 9 9 10 11 11 10 8 8 7 6 6 6 6 7 7 7 7 6 7 7 7 6 7 5 5 8 10 10 10 9 11 12
9 9 9 10 10 10 11 10 10 10 10 10 10 10 10 11 11 10 8 7 6 5 4 5 5 6 7 7 7 6 6 6 7 9 7 6 5 7 9 10 11 9 11
11 11 11 11 11 11 11 11 11 11 11 11 10 10 10 11 12 12 10 7 6 5 3 3 3 4 6 7 6 4 3 5 9 11 10 8 6 6 8 10 10 8 8
12 12 12 12 12 12 11 11 11 12 13 10 10 10 10 10 11 11 10 10 7 6 3 2 2 4 5 5 3 1 3 7 9 11 11 9 7 6 6 7 9 8 8
11 12 12 12 12 12 12 12 12 12 12 11 11 10 10 11 12 12 11 9 6 6 4 4 5 4 5 7 9 9 8 9 10 10 10 10 7 5 4 6 8 10 7
11 12 12 13 13 13 15 13 12 12 12 11 11 10 9 9 10 10 11 8 7 6 5 5 5 7 6 6 8 11 13 14 12 10 11 9 6 5 4 5 7 8 6
13 13 13 13 14 13 13 13 12 11 11 10 10 10 9 9 8 7 9 9 9 7 7 7 8 9 7 7 7 8 9 9 10 9 9 8 6 4 4 6 7 7 6
16 14 14 14 14 13 12 12 10 10 9 10 10 10 9 8 5 5 6 6 8 9 9 9 11 10 11 10 8 9 9 8 10 14 13 12 11 8 6 5 6 6 6
17 15 15 14 15 15 13 12 11 9 9 10 10 9 9 7 3 5 7 5 8 7 7 9 13 13 14 11 9 10 10 9 10 12 10 10 8 8 10 7 4 3 6
16 17 17 16 16 16 14 12 10 11 11 10 9 9 9 8 5 7 8 6 6 6 7 9 9 16 15 11 9 8 11 11 9 9 7 6 5 5 7 8 6 3 5
16 18 18 16 17 17 13 11 10 10 10 10 9 10 10 8 7 8 11 10 5 4 4 7 11 18 15 12 8 12 15 12 7 7 6 5 5 7 7 7 7 6 7
18 18 18 18 16 14 14 13 11 9 9 10 10 10 10 7 7 11 11 10 7 4 5 6 15 18 15 10 13 17 13 7 6 6 6 5 7 9 7 6 6 6 6
18 17 16 16 15 14 12 12 11 10 9 9 9 10 8 5 6 7 6 6 6 2 2 8 17 16 11 12 12 10 7 5 6 6 7 8 7 6 6 5 5 5 6
17 16 15 15 14 12 12 11 11 10 9 7 7 7 6 5 6 9 7 6 6 5 4 6 9 9 9 9 8 7 5 5 5 7 9 8 6 6 5 6 5 6 6
15 14 12 11 10 10 10 10 12 13 11 11 9 5 2 3 6 9 9 11 12 10 6 7 9 10 10 10 9 7 5 5 6 7 7 7 6 5 5 5 5 6 7
14 13 10 9 9 8 8 8 7 8 10 11 10 8 7 9 9 9 11 13 13 12 8 7 8 8 9 9 8 7 6 6 6 7 6 6 6 6 6 4 3 5 6
12 11 9 8 8 7 7 7 7 6 7 7 7 10 12 11 11 11 13 12 8 7 6 5 6 7 8 8 8 8 7 7 6 6 6 6 6 6 6 5 4 5 6
8 6 5 5 5 5 6 6 5 6 6 6 7 8 10 11 10 11 11 7 9 8 5 3 4 5 7 8 8 8 9 7 7 6 6 7 6 6 6 5 5 6 5
6 5 5 4 3 3 4 5 5 5 5 6 7 9 9 7 6 6 6 6 7 6 5 3 3 4 5 7 8 9 9 7 7 6 6 6 6 6 6 7 7 5 3
5 3 3 3 1 1 3 4 5 5 5 5 5 8 11 8 8 9 8 7 7 6 5 4 3 4 6 7 9 9 10 8 6 6 7 6 6 5 6 7 8 6 5
5 4 3 2 1 2 3 4 4 4 5 6 7 7 7 7 8 9 8 8 7 6 5 4 5 4 6 8 9 9 9 9 7 7 8 6 5 5 6 6 7 6 6
6 5 4 3 3 3 3 3 3 4 4 5 6 7 7 6 8 10 9 9 8 8 7 7 6 4 5 7 8 7 8 9 8 7 7 7 5 4 4 5 6 6 6
5 5 3 2 2 2 2 3 3 4 4 5 5 6 7 7 8 10 10 10 9 9 8 7 6 6 7 8 7 6 6 8 8 7 8 7 7 5 4 4 5 6 5
4 3 1 0 1 2 3 4 4 5 5 5 6 7 8 9 10 11 11 11 12 10 10 9 6 7 8 10 9 7 10 12 10 9 6 5 6 6 6 6 5 5 5
3 2 1 1 1 1 2 3 4 6 6 7 8 8 9 10 12 13 12 11 11 10 9 8 8 8 9 9 9 12 13 14 12 9 5 5 5 5 5 5 7 6 6
Wind_Direction
332 332 327 323 323 321 317 323 333 332 332 326 313 297 280 268 259 252 253 268 279 290 298 302 302 298 292 284 272 259 246 230 224 179 120 130 122 120 114 114 115 109 110
314 313 311 313 314 312 309 315 317 315 314 314 313 306 292 281 270 260 259 270 281 289 303 312 313 313 307 297 284 264 244 222 192 159 136 129 123 123 122 119 116 111 110
273 271 274 279 284 287 291 296 300 301 301 303 303 302 299 292 284 273 262 258 264 278 298 312 321 325 316 307 292 272 246 217 166 147 137 126 116 122 121 118 115 114 112
264 262 261 263 266 269 272 275 279 281 284 286 291 294 295 294 286 276 267 254 251 256 263 288 323 336 329 315 305 282 228 164 144 140 135 132 122 122 125 127 126 129 131
263 261 260 259 258 258 261 264 266 269 274 275 281 286 292 291 283 279 269 254 237 236 223 209 74 56 27 357 334 340 136 133 135 135 135 133 133 137 138 143 142 140 127
274 271 267 262 261 259 259 259 260 263 265 267 270 275 282 290 305 304 282 262 238 229 204 173 140 119 85 60 62 71 97 124 131 133 137 139 137 138 137 146 143 142 142
292 286 280 272 267 263 264 261 255 255 257 257 262 265 270 281 291 287 269 257 232 218 191 180 168 137 133 109 88 81 80 88 104 120 128 128 134 143 146 159 164 161 148
295 293 291 285 278 271 264 259 255 255 257 259 262 265 266 274 288 275 258 252 240 217 189 174 152 151 152 145 122 101 91 92 109 114 118 117 125 147 172 164 150 139 130
294 293 293 291 289 285 277 268 262 259 257 259 263 259 260 264 272 254 234 247 243 221 189 170 160 158 157 155 133 117 106 98 101 113 118 121 121 116 123 131 133 134 132
295 296 293 287 283 281 278 277 274 266 261 258 259 259 261 259 236 202 204 237 244 223 186 165 165 157 160 160 145 137 130 129 127 122 120 125 118 97 83 82 87 139 145
297 298 295 290 285 279 272 267 267 268 265 261 266 272 268 257 218 187 190 215 248 238 192 170 161 155 158 158 151 146 145 141 136 132 128 123 113 96 81 70 56 57 139
299 295 291 287 285 282 275 268 262 263 263 260 258 261 261 246 219 191 193 201 214 258 243 183 159 160 160 159 153 150 154 151 145 143 140 141 126 101 90 82 68 55 83
297 291 287 284 279 273 269 266 262 255 254 254 254 256 255 235 199 190 196 195 192 225 270 205 159 157 153 149 151 156 165 172 156 152 147 131 114 113 109 99 91 79 70
290 286 282 279 275 268 260 255 253 247 242 241 249 257 257 225 191 190 197 178 142 140 240 158 146 147 145 137 147 161 182 181 158 148 126 116 117 128 139 144 139 125 100
286 282 278 272 268 264 256 248 244 239 229 227 243 254 252 228 201 194 188 166 140 123 141 160 150 146 143 145 157 173 182 153 140 125 124 131 146 162 162 160 150 135 123
285 280 275 269 263 256 252 251 232 225 219 215 222 230 213 161 160 168 161 138 127 137 172 182 158 153 153 155 162 165 158 146 135 129 136 151 165 160 144 150 160 150 145
282 279 273 267 262 253 244 239 233 218 214 207 205 190 164 147 144 148 145 135 141 156 190 188 160 157 157 159 161 159 157 147 137 140 153 158 151 140 140 159 163 138 135
287 280 275 267 257 247 237 229 222 206 193 194 181 157 144 139 138 141 138 128 144 174 201 186 161 161 159 160 161 160 153 146 149 157 160 153 148 150 156 162 152 140 133
298 289 285 278 259 238 225 218 212 200 194 188 160 140 131 121 118 140 150 151 165 183 201 202 170 164 159 156 153 146 143 151 161 157 151 150 156 156 160 165 134 127 146
315 301 295 291 265 228 204 199 193 188 183 180 172 155 147 144 139 151 165 159 166 183 205 205 191 171 158 150 140 140 146 156 160 154 148 157 163 165 167 152 137 150 188
334 335 276 276 257 194 182 177 170 171 169 166 167 150 155 159 153 158 163 167 175 191 208 213 220 182 152 144 143 149 154 157 164 158 153 171 173 164 151 144 149 174 185
344 351 0 14 79 115 137 150 160 164 160 146 140 139 146 157 150 156 165 173 183 200 212 224 231 198 161 154 150 157 159 159 171 163 155 172 166 158 157 158 167 181 167
355 11 43 62 84 105 122 136 147 150 144 141 146 154 165 166 156 161 172 181 187 199 212 217 227 210 171 157 154 161 164 161 168 163 157 163 164 167 166 164 169 169 166
351 358 27 62 99 125 139 152 160 162 160 162 166 170 177 179 173 173 176 186 192 200 208 211 218 207 176 158 159 169 169 157 160 164 165 165 168 175 176 167 172 180 181
342 352 4 287 224 193 183 182 186 186 184 185 185 185 185 181 179 178 182 187 193 199 199 201 205 201 182 170 170 164 147 142 150 161 161 176 181 183 184 182 185 194 197
337 339 314 273 257 211 184 184 190 186 180 178 178 178 177 174 173 174 180 185 192 199 197 196 198 189 180 178 156 136 136 136 136 142 162 183 199 200 196 201 204 206 213
Height
1475 1473 1471 1470 1468 1467 1467 1466 1465 1464 1463 1463 1463 1463 1464 1463 1463 1462 1461 1460 1458 1457 1455 1452 1450 1448 1447 1445 1444 1444 1444 1446 1447 1449 1451 1452 1455 1458 1461 1465 1468 1470 1472
1471 1469 1467 1465 1463 1461 1460 1458 1458 1457 1457 1456 1456 1456 1456 1457 1457 1457 1456 1455 1453 1452 1450 1448 1446 1444 1442 1440 1439 1438 1438 1439 1442 1444 1447 1450 1453 1457 1460 1464 1467 1469 1472
1466 1464 1461 1459 1457 1455 1453 1451 1450 1449 1449 1449 1449 1448 1449 1449 1450 1450 1450 1449 1448 1447 1446 1444 1442 1440 1438 1436 1434 1432 1432 1434 1437 1440 1444 1448 1452 1456 1460 1464 1467 1470 1472
1460 1458 1456 1453 1451 1449 1447 1445 1443 1441 1440 1440 1440 1440 1440 1441 1442 1443 1443 1443 1443 1442 1441 1440 1439 1437 1435 1432 1430 1428 1428 1430 1433 1437 1441 1447 1451 1456 1460 1463 1467 1471 1473
1455 1452 1450 1448 1445 1443 1441 1439 1437 1436 1434 1433 1433 1433 1433 1433 1434 1436 1437 1437 1438 1438 1437 1437 1436 1435 1433 1430 1428 1426 1427 1428 1431 1435 1440 1445 1451 1456 1460 1464 1467 1472 1476
1449 1446 1443 1441 1439 1437 1435 1433 1431 1430 1429 1428 1427 1426 1427 1427 1427 1427 1429 1430 1432 1433 1433 1433 1433 1432 1431 1429 1428 1427 1426 1428 1430 1434 1439 1444 1450 1455 1460 1464 1468 1472 1476
1442 1439 1437 1434 1431 1430 1428 1427 1425 1424 1423 1423 1422 1421 1420 1420 1420 1420 1421 1423 1425 1428 1429 1430 1431 1430 1430 1430 1429 1428 1429 1430 1433 1435 1440 1445 1451 1456 1460 1464 1469 1472 1475
1434 1431 1429 1427 1424 1422 1420 1419 1418 1418 1417 1416 1416 1416 1415 1415 1414 1414 1414 1416 1418 1422 1424 1426 1428 1428 1430 1431 1431 1432 1432 1434 1436 1440 1444 1448 1453 1458 1461 1465 1469 1473 1477
1426 1423 1420 1418 1416 1414 1412 1411 1411 1411 1410 1410 1410 1411 1410 1409 1409 1408 1408 1409 1412 1416 1419 1422 1424 1426 1428 1430 1432 1433 1435 1437 1440 1444 1447 1451 1455 1459 1463 1466 1470 1473 1476
1417 1414 1411 1409 1406 1404 1403 1402 1402 1402 1403 1403 1404 1404 1405 1404 1404 1404 1404 1404 1407 1411 1415 1418 1421 1423 1426 1429 1432 1435 1437 1439 1442 1446 1450 1454 1457 1461 1463 1466 1469 1472 1475
1406 1403 1401 1398 1396 1394 1393 1393 1393 1394 1395 1396 1396 1397 1398 1398 1398 1398 1399 1400 1402 1405 1410 1414 1417 1421 1424 1428 1432 1436 1438 1441 1444 1447 1451 1454 1458 1460 1462 1464 1467 1471 1474
1395 1391 1389 1386 1385 1384 1383 1383 1384 1385 1386 1387 1389 1390 1391 1392 1393 1393 1394 1395 1396 1399 1404 1410 1414 1418 1422 1427 1431 1435 1439 1442 1445 1448 1451 1454 1456 1459 1461 1464 1467 1470 1472
1382 1378 1376 1374 1373 1373 1373 1373 1374 1376 1377 1379 1382 1383 1384 1386 1386 1387 1388 1389 1391 1394 1398 1404 1411 1416 1420 1425 1429 1434 1439 1443 1446 1449 1451 1454 1455 1457 1460 1463 1466 1469 1471
1368 1365 1363 1362 1361 1362 1362 1364 1365 1367 1369 1372 1374 1377 1378 1380 1381 1381 1382 1384 1386 1390 1394 1400 1407 1413 1418 1423 1428 1433 1438 1442 1445 1448 1450 1452 1455 1457 1460 1462 1465 1468 1470
1356 1353 1352 1351 1350 1351 1352 1354 1356 1358 1362 1365 1368 1371 1373 1375 1376 1377 1378 1380 1383 1387 1392 1398 1405 1411 1415 1421 1426 1432 1437 1441 1444 1447 1449 1451 1455 1457 1460 1463 1465 1467 1469
1345 1343 1342 1341 1341 1342 1344 1346 1348 1351 1355 1359 1362 1366 1369 1371 1372 1374 1375 1378 1382 1388 1395 1400 1404 1409 1414 1419 1425 1431 1435 1439 1443 1445 1448 1451 1454 1457 1460 1463 1465 1468 1470
1337 1335 1334 1334 1335 1336 1338 1340 1343 1346 1349 1353 1358 1362 1365 1367 1369 1370 1372 1377 1382 1388 1395 1401 1405 1409 1414 1419 1425 1430 1434 1438 1441 1444 1448 1451 1454 1457 1460 1463 1465 1468 1471
1331 1330 1329 1329 1330 1331 1333 1336 1339 1342 1345 1349 1354 1358 1362 1365 1366 1368 1371 1376 1382 1388 1395 1400 1405 1410 1415 1419 1424 1429 1433 1437 1440 1444 1448 1451 1454 1457 1459 1462 1465 1468 1471
1328 1327 1326 1326 1327 1328 1330 1333 1336 1340 1343 1347 1352 1355 1359 1362 1365 1367 1371 1375 1381 1388 1394 1400 1405 1410 1415 1420 1424 1428 1432 1436 1440 1444 1447 1450 1453 1456 1459 1462 1465 1468 1470
1328 1327 1326 1326 1326 1327 1329 1332 1335 1338 1342 1346 1350 1354 1357 1361 1363 1367 1371 1376 1383 1389 1395 1400 1406 1410 1415 1419 1424 1428 1431 1435 1439 1443 1446 1450 1453 1456 1459 1461 1464 1467 1470
1330 1328 1327 1327 1327 1328 1330 1333 1335 1338 1342 1346 1350 1354 1357 1360 1364 1367 1372 1378 1384 1390 1396 1401 1406 1411 1416 1420 1423 1427 1431 1435 1439 1443 1446 1449 1452 1455 1458 1461 1463 1466 1468
1333 1331 1330 1330 1330 1331 1332 1335 1337 1340 1343 1347 1351 1354 1358 1362 1365 1369 1374 1381 1386 1392 1397 1402 1406 1411 1416 1420 1423 1427 1431 1434 1438 1442 1445 1448 1451 1454 1457 1460 1462 1464 1467
1336 1335 1333 1333 1333 1334 1335 1337 1339 1342 1345 1348 1352 1355 1359 1363 1366 1371 1376 1382 1388 1393 1398 1403 1407 1411 1416 1420 1423 1427 1430 1433 1437 1441 1444 1447 1450 1453 1456 1459 1461 1463 1465
1339 1336 1335 1335 1335 1335 1337 1338 1340 1343 1346 1348 1351 1355 1359 1363 1367 1372 1378 1383 1389 1395 1399 1403 1407 1411 1415 1419 1423 1427 1430 1433 1436 1440 1443 1446 1449 1452 1455 1457 1459 1461 1463
1340 1337 1336 1335 1334 1335 1336 1337 1339 1341 1344 1347 1350 1354 1358 1363 1368 1373 1378 1384 1390 1395 1400 1404 1408 1411 1415 1419 1423 1426 1429 1432 1435 1439 1442 1445 1448 1451 1453 1455 1457 1459 1461
1342 1339 1336 1335 1334 1334 1335 1336 1337 1340 1343 1346 1350 1354 1358 1363 1369 1374 1380 1385 1391 1396 1400 1404 1408 1412 1415 1419 1422 1425 1428 1431 1434 1438 1440 1443 1446 1449 1451 1453 1455 1456 1458